Find Kosmos-1883

NORAD ID: 18355 Int'l Des: 1987-079 Owner: UNKS Country: SU Constellation: GLONASS operational
MEOCIRCULAR

現在のビュー

3D地球を読み込み中...

About Kosmos-1883

Kosmos-1883 (NORAD 18355) is a GLONASS constellation satellite launched Sep 16, 1987 by UNKS of SU. It operates in MEO, CIRCULAR orbit with a mass of 1300.00 kg.

Kosmos-1883について

説明を読み込み中...

次回通過

Passes for default location (London). Set your location on the main map for personalized predictions.

高度履歴

Loading altitude history...

軌道要素

1 18355U 87079A 26192.79068288 -.00000066 00000-0 00000-0 0 9994
2 18355 65.5791 317.9097 0004785 241.3589 102.6831 2.13100899302053
Epoch: Jul 11, 2026 • Age: 67 hours

現在のステータス

高度 19139.6 km
遠地点 / 近地点 N/A
速度 3.95 km/s
衛星直下点 -36.26°S, 159.21°E
打ち上げ日 Sep 16, 1987
運用期間 38.8 years
タイプ other

技術仕様

分類 Payload
質量 1300.00 kg
乾燥質量 1200.00 kg
総質量 1300.00 kg
長さ 4.00 m
直径 1.50 m
スパン 7.80 m
形状 Cyl + Ant + 2 Pan
製造者 OAZ
バスタイプ Uragan
フェーズステータス In Orbit
所有者/国 UNKS/SU

Most Searched